Location: Cuzcurrita-R�o Tir�n
(42.5415°N, 2.9642°W)
Time: 20:30:32
(UTC+00:00)

Cosmos 489 Rocket - Pass Details

Date: 17 January 2021
Orbit: 952 x 983 km, 74.0° (Epoch: 02 March)

Event Time Altitude Azimuth Distance (km) Brightness Sun altitude
Rises 19:04:10 0° 342° (NNW) 3,699 7.6 -21.3°
Reaches altitude 10° 19:06:46 10° 347° (NNW) 2,747 6.9 -21.8°
Maximum altitude 19:13:04 60° 66° (ENE) 1,120 4.5 -22.9°
Enters shadow 19:15:45 34° 131° (SE) 1,550 5.2 -23.4°
